Location: Voyageurs National Park
(48.5020°N, 92.9292°W)
Time: 05:28:27
(UTC-05:00)

Daily predictions for brighter satellites

Satellite Brightness Start Highest point End
(mag) Time Altitude Azimuth Time Altitude Azimuth Time Altitude Azimuth
Cosmos 1891 Rocket 4.4 00:06:15 81° WSW 00:06:23 82° W 00:12:53 10° N
Cosmos 921 Rocket 4.4 00:04:10 10° NNW 00:06:56 37° N 00:06:56 37° N
Meteor 2-12 Rocket 4.5 00:09:34 73° NE 00:09:34 73° NE 00:15:13 10° NNE
Meteor 1-22 Rocket 4.4 00:11:24 70° NW 00:11:24 70° NW 00:16:44 10° N
SL-16 R/B 3.4 00:09:53 26° W 00:12:21 38° NW 00:17:40 10° NNE
UNK 3.9 00:01:47 10° W 00:14:51 82° NNW 00:14:51 82° NNW
Cosmos 1844 Rocket 3.0 00:13:25 10° NNW 00:18:07 64° NNW 00:18:07 64° NNW
Cosmos 1844 4.0 00:13:53 10° NNW 00:18:53 63° NNE 00:18:53 63° NNE
CZ-2C R/B 4.4 00:16:24 10° NE 00:19:23 22° ENE 00:19:23 22° ENE
Cosmos 2360 Rocket 2.5 00:27:34 61° NW 00:27:34 61° NW 00:32:50 10° NNE
Cosmos 1655 Rocket 4.2 00:31:57 10° N 00:37:52 61° ENE 00:37:52 61° ENE
H-2A R/B 4.4 00:39:08 12° W 00:39:08 12° W 00:41:00 10° WNW
CZ-4B R/B 4.4 00:45:49 17° N 00:45:49 17° N 00:46:47 10° N
Cosmos 2219 Rocket 3.3 00:49:27 36° NE 00:49:27 36° NE 00:52:58 10° NE
Lacrosse 4 Rocket 3.4 00:51:00 29° NNE 00:51:00 29° NNE 00:53:20 10° NNE
Cosmos 2263 Rocket 4.4 00:46:59 10° WNW 00:48:52 13° W 00:48:52 13° W
Cosmos 1818 4.3 00:50:45 10° NNW 00:55:23 51° NNE 00:55:23 51° NNE
Cosmos 1092 Rocket 4.5 00:53:52 10° NNW 00:59:32 52° WNW 00:59:32 52° WNW
Cosmos 2322 Rocket 4.4 00:56:26 10° W 01:00:29 20° NW 01:04:35 10° N
SL-16 R/B 4.1 01:05:24 20° ENE 01:05:24 20° ENE 01:07:57 10° NE
Cosmos 1634 Rocket 4.1 01:05:51 73° NNW 01:05:51 73° NNW 01:11:41 10° N
Cosmos 2056 Rocket 4.3 01:00:33 10° NNW 01:04:20 48° NNW 01:04:20 48° NNW
Cosmos 2237 Rocket 3.3 01:08:49 37° ENE 01:08:49 37° ENE 01:12:33 10° NE
Cosmos 2297 4.3 01:02:00 10° NNW 01:07:02 54° NNE 01:07:02 54° NNE
Cosmos 2333 Rocket 3.1 01:09:43 43° NE 01:09:43 43° NE 01:13:46 10° NE
ATLAS 3B R/B 3.3 01:10:14 50° E 01:10:14 50° E 01:16:25 10° NE
ATLAS CENTAUR R/B 4.1 01:08:09 10° NNW 01:11:19 18° NNE 01:13:15 14° NE
CZ-4C R/B 4.3 01:21:12 17° E 01:21:12 17° E 01:23:16 10° ENE
COSMOS 2455 3.4 01:22:56 51° ENE 01:22:56 51° ENE 01:27:30 10° NE
Cosmos 2279 Rocket 4.1 01:22:21 71° NNE 01:22:21 71° NNE 01:27:53 10° N
COSMOS 2428 3.4 01:25:00 48° NW 01:25:00 48° NW 01:30:13 10° NNE
Cosmos 2278 Rocket 3.4 01:33:14 10° NW 01:36:40 34° WNW 01:36:40 34° WNW
Cosmos 2221 4.3 01:41:50 31° N 01:41:50 31° N 01:44:12 10° N
Cosmos 2266 Rocket 4.1 01:33:34 10° N 01:39:44 71° ENE 01:39:44 71° ENE
CZ-2C R/B 4.2 01:55:09 34° NW 01:55:09 34° NW 01:58:08 10° NNW
CZ-2C R/B 3.3 01:56:09 10° N 02:00:54 52° NW 02:00:54 52° NW
USA 238 DEB 3.9 02:05:39 57° ESE 02:05:39 57° ESE 02:12:14 10° NE
USA 238 4.0 02:05:46 56° ESE 02:05:46 56° ESE 02:12:20 10° NE
Cosmos 1607 4.3 02:08:04 52° E 02:08:04 52° E 02:13:15 10° NE
NOSS 0 Rocket 4.3 02:12:08 55° WNW 02:12:14 55° NW 02:18:19 10° NNE
Cosmos 2369 Rocket 3.5 02:16:17 10° NNW 02:21:28 37° NE 02:24:38 21° ESE
NOSS 3-3 (A) 4.5 02:20:27 10° NW 02:27:46 76° NE 02:33:13 22° SE
NOSS 3-3 (C) 4.5 02:20:33 10° NW 02:27:52 76° NE 02:33:32 21° SE
Exosat Rocket 4.2 02:23:14 10° NNW 02:27:00 51° NW 02:27:00 51° NW
Lacrosse 4 Rocket 4.1 02:27:20 12° NW 02:28:39 14° NNW 02:30:56 10° N
Cosmos 2219 Rocket 3.4 02:31:10 30° WNW 02:31:45 31° NW 02:36:44 10° NNE
Aureole 2 Rocket 4.3 02:39:17 36° N 02:39:17 36° N 02:42:00 10° NNE
NOSS 3-2 (C) 4.5 02:37:46 33° ESE 02:38:03 34° ESE 02:43:53 10° NE
Cosmos 1943 Rocket 4.2 02:35:39 10° NNW 02:40:24 26° NE 02:45:08 10° ESE
SL-16 R/B 2.3 02:47:17 65° NW 02:47:17 65° NW 02:52:55 10° NNE
Cosmos 1271 Rocket 4.4 02:50:44 32° ENE 02:50:44 32° ENE 02:53:36 10° NNE
ATLAS CENTAUR R/B 2.9 02:46:48 10° NW 02:49:30 34° NNW 02:49:30 34° NNW
Cosmos 2237 Rocket 3.3 02:50:38 32° WNW 02:51:21 33° NW 02:56:29 10° NNE
Cosmos 2333 Rocket 3.5 02:51:43 28° WNW 02:52:44 30° NW 02:57:47 10° NNE
Cosmos 2228 Rocket 4.3 02:58:01 35° NW 02:58:01 35° NW 03:01:14 10° N
ATLAS 3B R/B 3.4 02:57:28 36° W 03:00:10 51° NW 03:07:17 10° NE
ERS-2 4.4 02:57:54 10° NE 03:00:25 20° E 03:00:25 20° E
Cosmos 839 Rocket 4.4 02:52:58 10° NW 03:01:45 89° NE 03:06:15 25° SE
CZ-4C R/B 2.1 03:06:22 75° W 03:06:46 81° NW 03:13:02 10° NE
Cosmos 1869 Rocket 3.9 03:03:10 10° N 03:07:15 62° NE 03:07:15 62° NE
COSMOS 2455 4.1 03:06:04 26° WNW 03:07:57 31° NW 03:13:17 10° NNE
Cosmos 1340 Rocket 4.0 03:04:19 10° N 03:06:56 39° N 03:06:56 39° N
ATLAS 5 CENTAUR R/B 3.6 03:15:17 20° SE 03:16:04 21° ESE 03:19:51 10° ENE
S3M 3.9 03:15:04 61° S 03:16:17 90° N 03:22:39 10° N
IRS-1C 4.1 03:17:27 10° NNE 03:22:49 74° ESE 03:23:42 60° SSE
Cosmos 1048 Rocket 4.2 03:23:05 59° W 03:23:24 60° WNW 03:28:44 10° NNE
Meteor 2-2 Rocket 4.4 03:23:53 55° W 03:24:30 58° WNW 03:30:20 10° N
Cosmos 1302 Rocket 4.3 03:20:34 10° NNW 03:25:49 63° ENE 03:28:59 24° SE
SL-16 R/B 2.7 03:23:32 22° SSE 03:27:42 69° ENE 03:33:52 10° NNW
Cosmos 1386 Rocket 4.4 03:23:01 10° N 03:29:22 88° WSW 03:31:29 45° S
In-Cosmos 22 Rocket 3.9 03:24:40 10° NNW 03:30:00 82° W 03:30:47 65° S
Cosmos 1603 3.6 03:29:09 62° WSW 03:30:01 75° WNW 03:35:48 10° NNE
Cosmos 1553 Rocket 3.9 03:34:00 54° SW 03:35:15 68° WNW 03:41:21 10° N
Cosmos 1745 Rocket 4.0 03:29:20 10° NNW 03:35:37 62° W 03:36:58 51° SW
IRS-1D 4.2 03:30:49 10° NNE 03:35:54 49° E 03:37:54 33° SSE
Spot 4 Rocket 4.1 03:31:04 10° NNE 03:36:14 70° ESE 03:37:29 50° SSE
Cosmos 1709 Rocket 4.2 03:30:53 10° N 03:37:16 70° E 03:41:40 21° SSE
SL-08 R/B 4.3 03:40:44 33° WNW 03:40:44 33° WNW 03:43:59 10° NNW
Cosmos 1892 3.1 03:36:01 10° N 03:39:50 57° ENE 03:40:10 55° ESE
IRS-P3 4.3 03:34:42 10° N 03:39:53 52° WNW 03:40:34 49° W
Cosmos 1331 Rocket 3.9 03:34:40 10° NNW 03:39:54 64° WSW 03:40:13 62° SW
CZ-2D R/B 2.9 03:36:18 10° NNE 03:41:23 46° E 03:43:49 27° SSE
ARIANE 5 R/B 2.9 03:38:20 10° NNE 03:43:33 61° ESE 03:45:27 37° SSE
Cosmos 1726 2.5 03:45:18 55° NNW 03:45:18 55° NNW 03:48:24 10° N
Cosmos 1733 Rocket 4.0 03:40:36 10° N 03:44:50 46° ENE 03:47:36 20° SE
ERBS 3.3 03:47:55 42° NNW 03:47:55 42° NNW 03:51:07 10° NE
USA 234 3.8 03:41:51 10° ENE 03:48:08 46° SE 03:50:41 32° S
SeaSat 1 3.5 03:43:30 10° SE 03:48:11 46° NE 03:52:54 10° NNW
ADEOS 3.5 03:44:33 10° NNE 03:49:49 84° WNW 03:51:11 51° SSW
Cosmos 1151 Rocket 4.3 03:51:59 29° WNW 03:51:59 29° WNW 03:55:26 10° N
Meteor 2-3 Rocket 3.7 03:46:02 10° NNW 03:51:45 66° W 03:53:32 44° SSW
Cosmos 1707 Rocket 3.5 03:52:03 67° WSW 03:52:25 72° W 03:56:56 10° N
Cosmos 158 Rocket 4.1 03:53:50 48° W 03:54:39 54° WNW 03:59:32 10° NNE
USA 238 DEB 4.4 03:53:05 27° W 03:56:34 46° NW 04:03:20 10° NE
USA 238 4.4 03:53:12 27° W 03:56:39 46° NW 04:03:26 10° NE
AQUA 4.2 03:52:35 10° N 03:57:09 46° WNW 03:57:43 44° W
Cosmos 1943 3.1 03:56:53 44° SSW 03:58:47 87° ESE 04:04:28 10° NNE
Cosmos 1300 3.6 04:00:59 37° NW 04:00:59 37° NW 04:04:08 10° N
NPP 4.2 03:56:55 10° N 04:01:57 41° WNW 04:03:10 36° W
UNK 3.6 04:03:38 46° S 04:04:54 70° WSW 04:09:31 10° NNW
Cosmos 2369 Rocket 2.5 04:00:19 10° NW 04:05:36 43° WSW 04:06:18 41° SW
Meteor 1-4 Rocket 4.3 04:08:10 21° NW 04:08:10 21° NW 04:10:13 10° NNW
NOSS 3-2 (A) 3.7 04:08:07 34° WSW 04:10:54 64° NW 04:17:44 10° NE
Resurs 1-4 Rocket 2.1 04:06:49 10° NNE 04:12:07 84° ESE 04:14:51 30° S
Cosmos 2292 Rocket 3.3 04:09:57 10° NNW 04:12:12 46° NW 04:12:12 46° NW
Cosmos 1455 2.4 04:12:01 41° S 04:13:16 71° E 04:17:10 10° NNE
Cosmos 724 4.3 04:12:19 35° SSW 04:14:59 83° SE 04:21:06 10° NE
Abrixas rocket 2.0 04:18:08 79° WSW 04:18:17 84° S 04:21:38 10° E
Okean O Rocket 3.0 04:17:35 10° NNE 04:21:45 37° E 04:25:53 10° SSE
CENTAUR R/B 3.3 04:20:07 19° S 04:24:18 48° ESE 04:30:54 10° NE
Cosmos 1943 Rocket 2.1 04:19:02 10° NNW 04:24:42 69° WSW 04:30:17 10° SSE
Cosmos 2251 Rocket 3.9 04:23:20 33° WSW 04:25:14 48° WNW 04:30:20 10° NNE
ARGOS Delta rocket 4.3 04:21:30 10° NNE 04:25:50 54° E 04:29:24 15° S
Cosmos 1271 Rocket 4.3 04:25:58 22° WNW 04:26:04 22° WNW 04:29:17 10° NNW
NOSS 3-2 (C) 3.8 04:25:12 28° WSW 04:28:35 62° NW 04:35:27 10° NE
SL-27 R/B 3.7 04:27:08 20° SSE 04:29:14 38° ESE 04:32:38 10° NE
Cosmos 1408 3.5 04:26:55 10° N 04:30:35 51° ENE 04:34:16 10° SSE
SL-16 R/B 4.2 04:29:10 11° WNW 04:32:30 17° NW 04:36:08 10° N
ERS-2 2.9 04:31:09 10° N 04:34:35 36° WNW 04:35:15 33° W
Cosmos 2285 Rocket 4.1 04:29:56 10° NNW 04:36:25 86° ENE 04:42:49 10° SSE
Sich 1 Rocket 3.5 04:32:32 10° N 04:36:58 88° E 04:41:22 10° S
Cosmos 2315 Rocket 4.1 04:36:03 23° SSW 04:40:00 60° WNW 04:46:15 10° N
MTI 3.8 04:39:13 33° SSW 04:40:30 59° W 04:43:49 10° NNW
IRS-1C Rocket 4.4 04:39:15 10° NNE 04:44:30 65° ESE 04:49:45 10° S
Cosmos 1825 2.3 04:40:53 10° N 04:44:42 77° E 04:48:29 10° SSE
Meteor 2-11 Rocket 4.5 04:43:10 20° SSW 04:47:26 61° WNW 04:53:28 10° N
ATLAS 3B R/B 4.5 04:46:34 10° WNW 04:52:38 26° NNW 04:58:27 10° NE
Cosmos 1656 Rocket 3.5 04:48:29 10° NNW 04:53:56 81° WSW 04:59:20 10° SSE
CZ-4C R/B 3.8 04:51:33 11° W 04:56:18 28° NNW 05:01:52 10° NE
ATLAS 5 CENTAUR R/B 2.0 04:56:50 21° SW 05:00:08 72° NW 05:05:33 10° NE
Cosmos 1862 Rocket 3.8 04:58:47 20° SW 05:01:36 49° WNW 05:05:55 10° N
UNKNOWN OBJECT B 3.6 05:06:55 10° N 05:10:16 32° WNW 05:12:20 19° WSW
Okean 1-7 3.8 05:06:24 10° S 05:10:36 55° E 05:14:54 10° NNE
Cosmos 1862 3.5 05:07:12 10° NNW 05:11:03 49° W 05:14:53 10° S
SL-16 R/B 3.6 05:08:38 16° SW 05:11:53 23° W 05:16:44 10° NW
BREEZE-M DEB (TANK) 3.0 05:07:03 12° W 05:12:34 54° NNW 05:15:21 10° ENE
Okean 2 Rocket 3.2 05:08:18 10° N 05:12:50 84° E 05:17:22 10° S
Cosmos 1184 Rocket 4.4 05:12:44 10° NW 05:15:12 19° W 05:15:54 18° WSW
USA 129 2.3 05:14:29 10° SE 05:15:46 38° ENE 05:17:15 10° N
CZ-2C R/B 4.0 05:15:35 10° S 05:19:46 41° W 05:24:00 10° NNW
CZ-2D R/B 3.1 05:16:46 10° N 05:21:17 29° WNW 05:25:08 13° WSW
ARIANE 5 R/B 3.9 05:18:11 10° N 05:22:16 23° WNW 05:25:47 12° WSW
Cosmos 1733 Rocket 4.5 05:19:10 10° NW 05:22:18 20° W 05:24:37 13° WSW
Cosmos 1869 4.4 05:20:27 15° WSW 05:22:56 27° WNW 05:26:21 10° NNW
Nadezhda 1 Rocket 4.0 05:17:47 10° SSW 05:24:04 76° W 05:30:29 10° N
Cosmos 389 Rocket 3.5 05:23:17 15° SW 05:25:35 29° WNW 05:28:44 10° N
SeaSat 1 3.1 05:21:28 10° S 05:25:51 32° WSW 05:30:15 10° NW
Meteor 1-14 Rocket 4.3 05:24:22 10° NNW 05:30:13 85° W 05:36:08 10° S
USA 234 3.4 05:24:50 10° NE 05:31:22 71° NNW 05:37:53 10° WSW
Cosmos 1782 Rocket 3.7 05:27:47 10° NNW 05:32:01 51° W 05:36:12 10° S
CZ-4B R/B 2.8 05:30:05 10° N 05:33:41 56° WNW 05:37:22 10° SSW
Cosmos 2278 4.3 05:28:24 10° NNW 05:34:08 65° ENE 05:39:48 10° SE
Cosmos 1933 3.9 05:30:39 10° SSW 05:34:33 41° WNW 05:38:28 10° N
AVUM R/B 4.3 05:36:02 10° S 05:39:10 46° ESE 05:42:25 10° NE
Meteor PRIRODA 4.2 05:39:37 10° NNE 05:43:23 64° E 05:47:07 10° S
COSMOS 2487 2.6 05:43:19 10° SSW 05:46:56 83° ESE 05:50:33 10° NNE
COSMOS 2406 3.4 05:41:37 10° SW 05:47:19 59° WNW 05:53:00 10° NNE
Cosmos 2369 4.1 05:42:40 10° NNW 05:48:26 75° ENE 05:54:10 10° SSE
Cosmos 2154 Rocket 4.1 05:43:09 10° NNW 05:49:20 57° W 05:55:30 10° S
Cosmos 1455 4.4 05:48:00 10° W 05:49:30 12° WNW 05:51:02 10° NW
CZ-3A R/B 3.5 05:46:55 10° WNW 05:51:11 45° NNE 05:56:07 10° E
Resurs 1-4 Rocket 3.7 05:47:54 10° NNW 05:51:19 18° WNW 05:54:45 10° W
CZ-4B R/B 3.5 05:48:44 10° N 05:53:48 46° WNW 05:58:49 10° SW
Cosmos 1174 4.4 05:48:56 10° SW 05:53:59 56° NW 05:58:01 10° NNE
Abrixas rocket 3.0 05:52:05 10° W 05:55:08 33° SSW 05:58:12 10° SE
Cosmos 1782 4.0 05:51:47 10° SSE 05:55:40 47° E 05:59:35 10° NNE
